Location: Cahas Mountain Overlook
(37.0833°N, 80.1000°W)
Time: 17:39:45
(UTC-04:00)

Oscar 19 - Visible Passes

Search period start: 30 March 2023 00:00
Search period end: 09 April 2023 00:00
Orbit: 772 x 790 km, 98.8° (Epoch: 30 March)

Date Brightness Start Highest point End Pass type
(mag) Time Alt. Az. Time Alt. Az. Time Alt. Az.
30 Mar 11.4 05:04:16 10° NNE 05:09:17 51° E 05:13:26 15° S visible
31 Mar 12.6 04:32:47 10° NE 04:36:58 25° E 04:41:03 10° SSE visible
31 Mar 11.3 06:11:36 10° N 06:16:15 35° WNW 06:20:54 10° SW visible
01 Apr 13.4 04:02:55 10° ENE 04:04:31 11° E 04:06:05 10° ESE visible
01 Apr 10.5 05:39:05 10° N 05:44:14 73° WNW 05:49:12 11° SSW visible
02 Apr 11.3 05:07:01 10° NNE 05:12:04 54° E 05:16:47 12° S visible
03 Apr 12.5 04:35:30 10° NE 04:39:46 26° E 04:44:02 10° SSE visible
03 Apr 11.4 06:14:25 10° N 06:19:00 34° WNW 06:23:36 10° SW visible
04 Apr 13.4 04:05:20 10° ENE 04:07:19 12° E 04:09:18 10° ESE visible
04 Apr 10.6 05:41:52 10° N 05:47:00 69° WNW 05:52:08 10° SSW visible
05 Apr 11.2 05:09:46 10° NNE 05:14:51 57° E 05:19:56 10° S visible
06 Apr 12.5 04:38:11 10° NE 04:42:33 27° E 04:46:55 10° SSE visible
06 Apr 11.4 06:17:14 10° N 06:21:46 32° WNW 06:26:18 10° SW visible
07 Apr 13.3 04:07:49 10° ENE 04:10:07 13° E 04:12:25 10° ESE visible
07 Apr 10.6 05:44:39 10° N 05:49:47 66° WNW 05:54:53 10° SSW visible
08 Apr 11.1 05:12:30 10° NNE 05:17:38 60° ESE 05:22:44 10° S visible
